Regional Weather Roundup
Issued by NWS

Home | Current Version | Previous Version | Text Only | Print | Product List | Glossary Off
Versions: 1 2 3 4 5 6 7 8 9 10 11 12 13 14 15 16 17 18 19 20 21 22 23 24 25 26 27 28 29 30 31 32 33 34 35 36 37 38 39 40 41 42 43 44 45 46 47 48 49 50

404
ASUS45 KPSR 030610
RWRAZ

ARIZONA HOURLY REGIONAL WEATHER ROUNDUP
NATIONAL WEATHER SERVICE PHOENIX AZ
1100 PM MST FRI DEC 02 2016

NOTE: FAIR INDICATES FEW OR NO CLOUDS BELOW 12,000 FEET WITH NO
SIGNIFICANT WEATHER AND/OR OBSTRUCTIONS TO VISIBILITY.

AZZ001>003-036-030700-
NORTHWEST ARIZONA

CITY           SKY/WX    TMP DP  RH WIND       PRES   REMARKS
BULLHEAD CITY  CLEAR     54  14  20 N38G51    30.10R
KINGMAN        CLEAR     38  13  35 NE14      30.12R WCI  30
6HR MIN TEMP:  38; 6HR MAX TEMP:  46;

$$

AZZ004>008-015-016-018-030700-
NORTH CENTRAL ARIZONA

CITY           SKY/WX    TMP DP  RH WIND       PRES   REMARKS
GRAND CANYON   CLEAR    N/A N/A N/A NE12      30.10R
PRESCOTT       CLEAR     30  23  75 W5        30.03R WCI  25
6HR MIN TEMP:  27; 6HR MAX TEMP:  39;

FLAGSTAFF      CLEAR     27  16  63 NE17      30.05R WCI  14
6HR MIN TEMP:  26; 6HR MAX TEMP:  29;

PAYSON         CLEAR     37  18  44 N17G28    30.00F WCI  28
PAGE           CLEAR     37  11  34 W5        30.16R WCI  33
6HR MIN TEMP:  37; 6HR MAX TEMP:  43;

$$

AZZ009>014-017-030700-
NORTHEAST ARIZONA

CITY           SKY/WX    TMP DP  RH WIND       PRES   REMARKS
WINSLOW        CLEAR     29  18  63 NW10      30.09R WCI  20
6HR MIN TEMP:  29; 6HR MAX TEMP:  42;

SAINT JOHNS    PTCLDY    30  20  66 W7        30.02R WCI  23
6HR MIN TEMP:  29; 6HR MAX TEMP:  40;

WINDOW ROCK    CLEAR     26  18  71 MISG      30.07R
6HR MIN TEMP:  26; 6HR MAX TEMP:  37;

SHOW LOW       LGT RAIN  25  16  68 E3        30.04S
$$

AZZ023-030700-
GREATER PHOENIX AREA

CITY           SKY/WX    TMP DP  RH WIND       PRES   REMARKS
PHOENIX        PTCLDY    50  30  46 W5        29.90S
6HR MIN TEMP:  49; 6HR MAX TEMP:  59;

BUCKEYE        CLEAR     46  30  53 N12       29.94S
LUKE AFB       CLEAR     46  33  61 NW7       29.91S
6HR MIN TEMP:  46; 6HR MAX TEMP:  60;

DEER VALLEY    CLEAR     54  23  30 N13       29.90F
6HR MIN TEMP:  49; 6HR MAX TEMP:  58;

SCOTTSDALE     CLEAR     48  29  47 SW6       29.91F
6HR MIN TEMP:  48; 6HR MAX TEMP:  58;

MESA-GATEWAY   CLEAR     46  30  53 NW6       29.90F
$$

AZZ027-028-030700-
SOUTHWEST MARICOPA COUNTY AND PINAL COUNTY

CITY           SKY/WX    TMP DP  RH WIND       PRES   REMARKS
CASA GRANDE    NOT AVBL
$$

AZZ503-504-507>509-030700-
SOUTHEAST ARIZONA

CITY           SKY/WX    TMP DP  RH WIND       PRES   REMARKS
TUCSON         CLOUDY    48  22  35 S5        29.94R
6HR MIN TEMP:  48; 6HR MAX TEMP:  54;

DAVIS-MONTHAN  MOCLDY    48  22  36 SE8       29.93R
6HR MIN TEMP:  47; 6HR MAX TEMP:  52;

NOGALES        CLOUDY    42  33  70 NE12      29.89F
6HR MIN TEMP:  40; 6HR MAX TEMP:  52; 6HR PCP:  0.04;

SIERRA VISTA   LGT RAIN  36  34  93 NE3       29.94S FOG
6HR MIN TEMP:  36; 6HR MAX TEMP:  50; 6HR PCP: TRACE;

DOUGLAS        CLOUDY    41  39  93 NW6       29.92R
6HR MIN TEMP:  41; 6HR MAX TEMP:  54; 6HR PCP:  0.13;

SAFFORD        CLOUDY    46  19  34 MISG      29.89R
6HR MIN TEMP:  45; 6HR MAX TEMP:  57; 6HR PCP: TRACE;

$$

AZZ020-021-025-026-031-030700-
SOUTHWEST ARIZONA

CITY           SKY/WX    TMP DP  RH WIND       PRES   REMARKS
YUMA           CLEAR     57  18  21 N14       29.98S
6HR MIN TEMP:  56; 6HR MAX TEMP:  65;

$$

CAZ031-033-041-043-047-048-061-030700-
SOUTHERN CALIFORNIA

CITY           SKY/WX    TMP DP  RH WIND       PRES   REMARKS
DOWNTOWN L.A.  CLEAR     51  17  26 CALM      30.07R
6HR MIN TEMP:  51; 6HR MAX TEMP:  62;

L.A. AIRPORT   CLEAR     56  12  17 S7        30.08R
6HR MIN TEMP:  55; 6HR MAX TEMP:  63;

SAN DIEGO      CLEAR     56  16  20 N3        30.05R
6HR MIN TEMP:  55; 6HR MAX TEMP:  67;

BURBANK        CLEAR     57   3  11 E14G22    30.08R
6HR MIN TEMP:  55; 6HR MAX TEMP:  60;

ONTARIO        CLEAR     55   7  14 NE48G67   30.01R
6HR MIN TEMP:  54; 6HR MAX TEMP:  58;

RIVERSIDE      CLEAR     55  11  17 NE17G33   30.07F
6HR MIN TEMP:  53; 6HR MAX TEMP:  59;

PALM SPRINGS   CLEAR     57   9  14 NW13      30.15R
6HR MIN TEMP:  57; 6HR MAX TEMP:  61;

EL CENTRO NAS  CLEAR     53  18  25 NW12      30.07R
6HR MIN TEMP:  53; 6HR MAX TEMP:  63;

IMPERIAL       CLEAR     56  28  34 N13G20    30.04R
6HR MIN TEMP:  53; 6HR MAX TEMP:  64;

BLYTHE         MOCLDY    57  17  21 N25G35    30.02R HAZE
6HR MIN TEMP:  56; 6HR MAX TEMP:  63;

NEEDLES        CLEAR     53  18  25 N21G31    30.12R
6HR MIN TEMP:  53; 6HR MAX TEMP:  60;

$$

NVZ020-UTZ003-030700-
SOUTHERN NEVADA-UTAH

CITY           SKY/WX    TMP DP  RH WIND       PRES   REMARKS
LAS VEGAS      CLEAR     47   9  21 N12       30.22S
6HR MIN TEMP:  46; 6HR MAX TEMP:  53;

SALT LAKE CITY MOCLDY    27  19  72 S5        30.29R WCI  22
6HR MIN TEMP:  27; 6HR MAX TEMP:  34;

$$

NMZ009-TXZ055-030700-
NEW MEXICO-WEST TEXAS

CITY           SKY/WX    TMP DP  RH WIND       PRES   REMARKS
ALBUQUERQUE    CLOUDY    35  24  64 E28G40    30.08R WCI  22
6HR MIN TEMP:  35; 6HR MAX TEMP:  42;

EL PASO        MOCLDY    49  33  54 NE15      29.93R
6HR MIN TEMP:  49; 6HR MAX TEMP:  60; 6HR PCP: TRACE;

$$


........................KEY........................
SKY/WX - SKY CONDITION/WEATHER
TMP    - TEMPERATURE IN FAHRENHEIT
DP     - DEW POINT IN FAHRENHEIT
RH     - RELATIVE HUMIDITY IN PERCENT
WIND   - DIRECTION AND SPEED IN MILES PER HOUR (MPH)
VRB    - VARIABLE WIND DIRECTION
PRES   - MEAN SEA LEVEL PRESSURE IN INCHES OF MERCURY
         F - FALLING PRESSURE   R - RISING PRESSURE
         S - STEADY PRESSURE
VSB    - VISIBILITY IN MILES
HX     - HEAT INDEX IN FAHRENHEIT
WCI    - WIND CHILL INDEX IN FAHRENHEIT
TC     - TEMPERATURE IN CELSIUS WHICH IS ALSO KNOWN AS
         TEMPERATURE IN CENTIGRADE
AFB    - AIR FORCE BASE
         LUKE AFB IS LUKE AIR FORCE BASE
         DAVIS-MONTHAN IS DAVIS-MONTHAN AIR FORCE BASE
NAS    - NAVAL AIR STATION
         EL CENTRO NAS IS EL CENTRO NAVAL AIR STATION
N/A    - NOT AVAILABLE





USA.gov is the U.S. government's official web portal to all federal, state and local government web resources and services.